EDW23BD GCFV-LSZH

Flight info

Callsign EDW23BD
Flight time N/A
Altitude 34000
Route VASTO UN858 AKUDA DCT PESAS DCT OSLEP DCT OXACA DCT HIJ DCT CRISA DCT INPAN DCT VTB DCT PALIO DCT SEGRE DCT YAKXU DCT RONNY DCT TOPTU DCT TOU DCT GAI DCT MEN DCT NINUN DCT LATAM DCT ETREK DCT LTP DCT SOPLO DCT OMASI DCT KINNI DCT LAMUR DCT GUDAX Z57 DOPIL
Aircraft A320/M-SDE3FGHIRWY/LB1

Departure

Time N/A
Airport Fuerteventura Airport (GCFV)

Arrival

Time 2026-05-04 13:45
Airport Zürich Airport (LSZH)
Time Latitude Longitude Altitude Speed Heading
2026-05-04 10:25 28.78991 -13.68260 11339 ft 364 kts 20°
2026-05-04 10:25 28.81311 -13.67069 11944 ft 368 kts 20°
2026-05-04 10:25 28.83659 -13.65862 12522 ft 372 kts 20°
2026-05-04 10:25 28.86037 -13.64641 13145 ft 376 kts 20°
2026-05-04 10:26 28.88440 -13.63408 13739 ft 381 kts 20°
2026-05-04 10:26 28.90873 -13.62196 14277 ft 383 kts 15°
2026-05-04 10:26 28.93437 -13.61426 14803 ft 380 kts
2026-05-04 10:26 28.96054 -13.61263 15324 ft 377 kts 352°
2026-05-04 10:27 28.98638 -13.61679 15835 ft 374 kts 341°
2026-05-04 10:27 29.01111 -13.62585 16349 ft 374 kts 336°
2026-05-04 10:27 29.03581 -13.63562 16878 ft 378 kts 336°
2026-05-04 10:27 29.06083 -13.64547 17391 ft 381 kts 336°
2026-05-04 10:28 29.08599 -13.65536 17933 ft 384 kts 336°
2026-05-04 10:28 29.11137 -13.66532 18434 ft 388 kts 336°
2026-05-04 10:28 29.13699 -13.67537 18900 ft 391 kts 336°
2026-05-04 10:28 29.16281 -13.68552 19349 ft 394 kts 336°
2026-05-04 10:29 29.18887 -13.69576 19810 ft 397 kts 336°
2026-05-04 10:29 29.21507 -13.70603 20266 ft 400 kts 335°
2026-05-04 10:29 29.24148 -13.71636 20717 ft 403 kts 335°
2026-05-04 10:29 29.26811 -13.72680 21162 ft 406 kts 335°
2026-05-04 10:30 29.29493 -13.73734 21604 ft 409 kts 335°
2026-05-04 10:30 29.32194 -13.74792 22020 ft 412 kts 336°
2026-05-04 10:30 29.35025 -13.75507 22425 ft 424 kts 347°
2026-05-04 10:30 29.38013 -13.75593 22822 ft 435 kts 359°
2026-05-04 10:31 29.41006 -13.75143 23232 ft 441 kts
2026-05-04 10:31 29.44045 -13.74639 23635 ft 443 kts
2026-05-04 10:32 29.62625 -13.71656 25518 ft 455 kts
2026-05-04 10:33 29.65768 -13.71151 25811 ft 457 kts
2026-05-04 10:33 29.68931 -13.70644 26121 ft 459 kts
2026-05-04 10:33 29.72099 -13.70133 26422 ft 461 kts
2026-05-04 10:33 29.75281 -13.69618 26700 ft 463 kts
2026-05-04 10:34 29.78476 -13.69099 26969 ft 464 kts
2026-05-04 10:34 29.81682 -13.68580 27250 ft 466 kts
2026-05-04 10:34 29.84902 -13.68058 27516 ft 468 kts
2026-05-04 10:34 29.88133 -13.67534 27782 ft 470 kts
2026-05-04 10:35 29.91375 -13.67007 28032 ft 471 kts
2026-05-04 10:35 29.94637 -13.66477 28297 ft 473 kts
2026-05-04 10:35 29.97901 -13.65949 28542 ft 475 kts
2026-05-04 10:35 30.01142 -13.65423 28776 ft 476 kts
2026-05-04 10:36 30.04470 -13.64883 29012 ft 478 kts
2026-05-04 10:36 30.07768 -13.64347 29231 ft 480 kts
2026-05-04 10:36 30.11080 -13.63808 29437 ft 481 kts
2026-05-04 10:36 30.14355 -13.63272 29645 ft 483 kts
2026-05-04 10:37 30.17692 -13.62722 29847 ft 484 kts
2026-05-04 10:37 30.21026 -13.62174 30042 ft 486 kts
2026-05-04 10:37 30.24374 -13.61627 30327 ft 485 kts
2026-05-04 10:37 30.27707 -13.61081 30588 ft 483 kts
2026-05-04 10:39 30.47625 -13.57804 31995 ft 483 kts
2026-05-04 10:39 30.50894 -13.56733 32228 ft 494 kts 15°
2026-05-04 10:39 30.53968 -13.54885 32474 ft 504 kts 28°
2026-05-04 10:40 30.56858 -13.52595 32753 ft 503 kts 29°
2026-05-04 10:40 30.59745 -13.50295 32996 ft 502 kts 29°
2026-05-04 10:40 30.62617 -13.48006 33222 ft 501 kts 29°
2026-05-04 10:40 30.65494 -13.45709 33442 ft 501 kts 29°
2026-05-04 10:41 30.68370 -13.43412 33679 ft 500 kts 29°
2026-05-04 10:41 30.71227 -13.41127 33895 ft 500 kts 29°
2026-05-04 10:41 30.74097 -13.38835 34096 ft 500 kts 29°
2026-05-04 10:42 30.79809 -13.34274 34151 ft 497 kts 28°
2026-05-04 10:42 30.85502 -13.29717 34152 ft 495 kts 29°
2026-05-04 10:43 30.91168 -13.25170 34155 ft 494 kts 29°
2026-05-04 10:45 31.13862 -13.07128 34183 ft 494 kts 29°
2026-05-04 10:45 31.19535 -13.02596 34175 ft 493 kts 30°
2026-05-04 10:46 31.25230 -12.98035 34172 ft 493 kts 30°
2026-05-04 10:46 31.30850 -12.93519 34171 ft 493 kts 30°
2026-05-04 10:47 31.36497 -12.88988 34164 ft 492 kts 29°
2026-05-04 10:47 31.42154 -12.84459 34160 ft 492 kts 30°
2026-05-04 10:49 31.64661 -12.66313 34167 ft 489 kts 30°
2026-05-04 10:50 31.70264 -12.61783 34161 ft 489 kts 30°
2026-05-04 10:52 31.92644 -12.43604 34165 ft 488 kts 31°
2026-05-04 10:52 31.98178 -12.39090 34157 ft 487 kts 31°
2026-05-04 10:54 32.20483 -12.20915 34153 ft 486 kts 31°
2026-05-04 10:56 32.42780 -12.02630 34144 ft 489 kts 31°
2026-05-04 10:57 32.48368 -11.98028 34148 ft 490 kts 31°
2026-05-04 10:57 32.53969 -11.93413 34152 ft 490 kts 31°
2026-05-04 10:58 32.59571 -11.88791 34182 ft 490 kts 31°
2026-05-04 10:58 32.65172 -11.84167 34169 ft 491 kts 31°
2026-05-04 10:59 32.70782 -11.79520 34165 ft 491 kts 31°
2026-05-04 10:59 32.75467 -11.75626 34159 ft 491 kts 31°
2026-05-04 11:00 32.81067 -11.70977 34151 ft 491 kts 31°
2026-05-04 11:02 33.03473 -11.52277 34161 ft 492 kts 31°
2026-05-04 11:05 33.45246 -11.16973 34180 ft 490 kts 31°
2026-05-04 11:06 33.50796 -11.12227 34184 ft 490 kts 31°
2026-05-04 11:06 33.56338 -11.07485 34169 ft 489 kts 31°
2026-05-04 11:10 33.95026 -10.74193 34176 ft 487 kts 30°
2026-05-04 11:12 34.16999 -10.55120 34175 ft 487 kts 30°
2026-05-04 11:12 34.22499 -10.50328 34169 ft 488 kts 30°
2026-05-04 11:13 34.28003 -10.45511 34168 ft 488 kts 30°
2026-05-04 11:13 34.33503 -10.40696 34189 ft 489 kts 30°
2026-05-04 11:14 34.38985 -10.35897 34174 ft 489 kts 30°
2026-05-04 11:16 34.61033 -10.16503 34196 ft 490 kts 30°
2026-05-04 11:16 34.66548 -10.11648 34186 ft 489 kts 30°
2026-05-04 11:17 34.72062 -10.06801 34185 ft 489 kts 30°
2026-05-04 11:19 34.94069 -9.87385 34163 ft 487 kts 29°
2026-05-04 11:19 34.99549 -9.82518 34145 ft 487 kts 30°
2026-05-04 11:20 35.05036 -9.77638 34148 ft 488 kts 30°
2026-05-04 11:20 35.10516 -9.72757 34143 ft 488 kts 30°
2026-05-04 11:22 35.32525 -9.53111 34163 ft 490 kts 29°
2026-05-04 11:23 35.38023 -9.48177 34166 ft 490 kts 29°
2026-05-04 11:25 35.57345 -9.30774 34147 ft 494 kts 29°
2026-05-04 11:25 35.62873 -9.25764 34149 ft 494 kts 29°
2026-05-04 11:27 35.87776 -9.03127 34139 ft 495 kts 29°
2026-05-04 11:28 35.93306 -8.98083 34167 ft 496 kts 29°
2026-05-04 11:28 35.98522 -8.92400 34145 ft 508 kts 44°
2026-05-04 11:29 36.03132 -8.85751 34135 ft 509 kts 44°
2026-05-04 11:29 36.07746 -8.79097 34131 ft 509 kts 44°
2026-05-04 11:33 36.40004 -8.32442 34117 ft 509 kts 45°
2026-05-04 11:33 36.44601 -8.25736 34113 ft 510 kts 45°
2026-05-04 11:34 36.49195 -8.19004 34161 ft 510 kts 45°
2026-05-04 11:34 36.53772 -8.12292 34155 ft 508 kts 45°
2026-05-04 11:35 36.58344 -8.05596 34148 ft 507 kts 45°
2026-05-04 11:35 36.62896 -7.98899 34143 ft 506 kts 46°
2026-05-04 11:36 36.67443 -7.92192 34138 ft 506 kts 46°
2026-05-04 11:36 36.71987 -7.85484 34124 ft 506 kts 46°
2026-05-04 11:37 36.76522 -7.78772 34150 ft 506 kts 46°
2026-05-04 11:37 36.81053 -7.72058 34140 ft 505 kts 46°
2026-05-04 11:38 36.85536 -7.65402 34136 ft 504 kts 46°
2026-05-04 11:38 36.89314 -7.59781 34135 ft 504 kts 46°
2026-05-04 11:39 36.94548 -7.51979 34112 ft 504 kts 46°
2026-05-04 11:41 37.09580 -7.29530 34116 ft 503 kts 46°
2026-05-04 11:41 37.14095 -7.22822 34105 ft 503 kts 46°
2026-05-04 11:42 37.18609 -7.16106 34100 ft 504 kts 46°
2026-05-04 11:42 37.23088 -7.09419 34088 ft 504 kts 46°
2026-05-04 11:43 37.27593 -7.02675 34125 ft 504 kts 46°
2026-05-04 11:43 37.32088 -6.95925 34105 ft 504 kts 46°
2026-05-04 11:44 37.36577 -6.89173 34100 ft 503 kts 46°
2026-05-04 11:44 37.41061 -6.82418 34079 ft 503 kts 47°
2026-05-04 11:45 37.45541 -6.75642 34065 ft 503 kts 47°
2026-05-04 11:45 37.50018 -6.68865 34053 ft 504 kts 47°
2026-05-04 11:46 37.54497 -6.62079 34098 ft 504 kts 47°
2026-05-04 11:46 37.58973 -6.55275 34090 ft 503 kts 47°
2026-05-04 11:47 37.63432 -6.48478 34066 ft 502 kts 47°
2026-05-04 11:47 37.67891 -6.41682 34049 ft 502 kts 47°
2026-05-04 11:48 37.72350 -6.34873 34039 ft 503 kts 47°
2026-05-04 11:48 37.76803 -6.28054 34040 ft 503 kts 47°
2026-05-04 11:49 37.81249 -6.21213 34063 ft 503 kts 47°
2026-05-04 11:49 37.85696 -6.14369 34067 ft 503 kts 47°
2026-05-04 11:50 37.90134 -6.07527 34044 ft 503 kts 47°
2026-05-04 11:50 37.94541 -6.00716 34036 ft 503 kts 47°
2026-05-04 11:51 37.98954 -5.93804 34030 ft 504 kts 49°
2026-05-04 11:51 38.03304 -5.86815 34030 ft 505 kts 49°
2026-05-04 11:52 38.07651 -5.79811 34068 ft 505 kts 48°
2026-05-04 11:52 38.12011 -5.72831 34053 ft 504 kts 48°
2026-05-04 11:53 38.16364 -5.65859 34033 ft 504 kts 49°
2026-05-04 11:53 38.20723 -5.58854 34026 ft 505 kts 49°
2026-05-04 11:55 38.38089 -5.30715 34001 ft 506 kts 49°
2026-05-04 11:56 38.42425 -5.23657 34000 ft 507 kts 49°
2026-05-04 11:56 38.46776 -5.16566 34003 ft 507 kts 49°
2026-05-04 11:57 38.51200 -5.09535 34009 ft 505 kts 43°
2026-05-04 11:57 38.56185 -5.03245 34052 ft 504 kts 40°
2026-05-04 11:58 38.61191 -4.96976 34039 ft 504 kts 40°
2026-05-04 11:58 38.66188 -4.90690 34015 ft 505 kts 41°
2026-05-04 11:59 38.71196 -4.84381 34005 ft 505 kts 40°
2026-05-04 11:59 38.76211 -4.78056 34007 ft 506 kts 41°
2026-05-04 12:00 38.81229 -4.71708 34023 ft 506 kts 41°
2026-05-04 12:00 38.86234 -4.65346 34018 ft 506 kts 41°
2026-05-04 12:01 38.91233 -4.58978 34016 ft 506 kts 41°
2026-05-04 12:02 39.08762 -4.36614 34032 ft 508 kts 41°
2026-05-04 12:03 39.13768 -4.30179 34017 ft 508 kts 41°
2026-05-04 12:03 39.18764 -4.23743 33996 ft 508 kts 41°
2026-05-04 12:04 39.23734 -4.17343 33991 ft 508 kts 41°
2026-05-04 12:04 39.28732 -4.10892 34018 ft 508 kts 41°
2026-05-04 12:05 39.33755 -4.04384 33998 ft 508 kts 41°
2026-05-04 12:05 39.38719 -3.97938 33991 ft 509 kts 41°
2026-05-04 12:06 39.43718 -3.91448 33983 ft 509 kts 41°
2026-05-04 12:06 39.48708 -3.84959 33981 ft 509 kts 41°
2026-05-04 12:07 39.53696 -3.78447 33998 ft 510 kts 42°
2026-05-04 12:07 39.58687 -3.71903 33977 ft 510 kts 42°
2026-05-04 12:08 39.63682 -3.65357 33969 ft 511 kts 42°
2026-05-04 12:08 39.68675 -3.58802 33968 ft 511 kts 42°
2026-05-04 12:09 39.73673 -3.52217 33972 ft 511 kts 42°
2026-05-04 12:09 39.78818 -3.45869 34007 ft 506 kts 33°
2026-05-04 12:10 39.84630 -3.40796 33974 ft 503 kts 28°
2026-05-04 12:10 39.90485 -3.35778 33967 ft 504 kts 29°
2026-05-04 12:11 39.96349 -3.30724 33974 ft 505 kts 29°
2026-05-04 12:11 40.02208 -3.25660 34024 ft 505 kts 30°
2026-05-04 12:12 40.08056 -3.20600 33998 ft 504 kts 30°
2026-05-04 12:12 40.13894 -3.15547 34013 ft 503 kts 30°
2026-05-04 12:14 40.37180 -2.95281 33979 ft 504 kts 30°
2026-05-04 12:15 40.43023 -2.90168 33978 ft 504 kts 31°
2026-05-04 12:15 40.48854 -2.85053 34006 ft 504 kts 31°
2026-05-04 12:16 40.54673 -2.79936 34005 ft 503 kts 31°
2026-05-04 12:16 40.60489 -2.74808 34002 ft 503 kts 31°
2026-05-04 12:17 40.66296 -2.69673 33997 ft 503 kts 31°
2026-05-04 12:17 40.72097 -2.64538 33958 ft 503 kts 31°
2026-05-04 12:18 40.77920 -2.59377 33959 ft 505 kts 31°
2026-05-04 12:18 40.82770 -2.55070 33959 ft 506 kts 31°
2026-05-04 12:19 40.88621 -2.49866 33993 ft 507 kts 31°
2026-05-04 12:19 40.94458 -2.44656 34000 ft 506 kts 32°
2026-05-04 12:20 41.00281 -2.39445 33991 ft 505 kts 32°
2026-05-04 12:20 41.05999 -2.34032 33988 ft 506 kts 36°
2026-05-04 12:21 41.11468 -2.28148 33970 ft 506 kts 39°
2026-05-04 12:21 41.16873 -2.22146 33945 ft 508 kts 38°
2026-05-04 12:22 41.22371 -2.16215 33940 ft 509 kts 37°
2026-05-04 12:22 41.27919 -2.10345 33939 ft 510 kts 37°
2026-05-04 12:23 41.33471 -2.04455 33974 ft 510 kts 38°
2026-05-04 12:23 41.39000 -1.98522 33978 ft 509 kts 38°
2026-05-04 12:24 41.44491 -1.92593 33981 ft 508 kts 38°
2026-05-04 12:24 41.49978 -1.86673 33937 ft 508 kts 38°
2026-05-04 12:25 41.55485 -1.80742 33952 ft 509 kts 38°
2026-05-04 12:25 41.60990 -1.74790 33953 ft 509 kts 38°
2026-05-04 12:26 41.66487 -1.68826 33954 ft 509 kts 38°
2026-05-04 12:26 41.71991 -1.62840 33944 ft 509 kts 38°
2026-05-04 12:27 41.77474 -1.56862 33970 ft 508 kts 39°
2026-05-04 12:27 41.82951 -1.50877 33942 ft 507 kts 39°
2026-05-04 12:28 41.88429 -1.44882 33938 ft 508 kts 39°
2026-05-04 12:28 41.93902 -1.38878 33937 ft 508 kts 39°
2026-05-04 12:29 41.99381 -1.32858 33951 ft 509 kts 39°
2026-05-04 12:29 42.04853 -1.26823 33957 ft 508 kts 39°
2026-05-04 12:30 42.10313 -1.20783 33954 ft 508 kts 39°
2026-05-04 12:30 42.15771 -1.14754 33962 ft 508 kts 39°
2026-05-04 12:31 42.21194 -1.08738 33942 ft 509 kts 39°
2026-05-04 12:31 42.26664 -1.02645 33941 ft 510 kts 39°
2026-05-04 12:32 42.34872 -0.93494 33944 ft 510 kts 39°
2026-05-04 12:33 42.40346 -0.87369 33976 ft 510 kts 39°
2026-05-04 12:33 42.45215 -0.80454 33980 ft 507 kts 54°
2026-05-04 12:34 42.49504 -0.72873 33943 ft 507 kts 54°
2026-05-04 12:34 42.53812 -0.65298 33942 ft 508 kts 54°
2026-05-04 12:35 42.58132 -0.57700 33956 ft 508 kts 54°
2026-05-04 12:35 42.62436 -0.50085 33978 ft 508 kts 54°
2026-05-04 12:36 42.66726 -0.42472 33984 ft 507 kts 54°
2026-05-04 12:36 42.71009 -0.34844 33991 ft 507 kts 54°
2026-05-04 12:37 42.75283 -0.27211 33998 ft 507 kts 54°
2026-05-04 12:37 42.79537 -0.19594 33990 ft 506 kts 55°
2026-05-04 12:38 42.83915 -0.12068 33991 ft 506 kts 52°
2026-05-04 12:38 42.88394 -0.04760 33984 ft 506 kts 51°
2026-05-04 12:39 42.92905 0.02625 33949 ft 506 kts 52°
2026-05-04 12:39 42.97363 0.10063 33949 ft 507 kts 53°
2026-05-04 12:40 43.01810 0.17553 33962 ft 507 kts 53°
2026-05-04 12:40 43.06250 0.25029 33981 ft 506 kts 53°
2026-05-04 12:41 43.10686 0.32514 33980 ft 506 kts 53°
2026-05-04 12:41 43.15106 0.39985 33938 ft 505 kts 52°
2026-05-04 12:42 43.19529 0.47457 33931 ft 505 kts 52°
2026-05-04 12:42 43.23951 0.54952 33971 ft 505 kts 52°
2026-05-04 12:43 43.28353 0.62444 33967 ft 504 kts 52°
2026-05-04 12:43 43.32743 0.69941 33965 ft 503 kts 53°
2026-05-04 12:44 43.37112 0.77422 33932 ft 502 kts 52°
2026-05-04 12:44 43.41495 0.84931 33919 ft 504 kts 52°
2026-05-04 12:45 43.45866 0.92460 33958 ft 503 kts 52°
2026-05-04 12:45 43.50227 0.99993 33959 ft 502 kts 52°
2026-05-04 12:46 43.54576 1.07508 33954 ft 501 kts 52°
2026-05-04 12:46 43.58919 1.15025 33897 ft 501 kts 52°
2026-05-04 12:47 43.63255 1.22570 33913 ft 502 kts 53°
2026-05-04 12:47 43.67588 1.30118 33920 ft 502 kts 53°
2026-05-04 12:48 43.71826 1.37734 33922 ft 502 kts 55°
2026-05-04 12:48 43.75928 1.45525 33925 ft 501 kts 56°
2026-05-04 12:49 43.80020 1.53358 33892 ft 501 kts 55°
2026-05-04 12:49 43.84142 1.61153 33925 ft 502 kts 55°
2026-05-04 12:50 43.88283 1.68935 33941 ft 501 kts 55°
2026-05-04 12:50 43.92410 1.76715 33945 ft 501 kts 55°
2026-05-04 12:51 43.96509 1.84524 33952 ft 500 kts 56°
2026-05-04 12:51 44.00499 1.92447 33919 ft 500 kts 57°
2026-05-04 12:52 44.04391 2.00378 33954 ft 500 kts 57°
2026-05-04 12:52 44.08337 2.08404 33964 ft 499 kts 57°
2026-05-04 12:53 44.12275 2.16352 33971 ft 499 kts 57°
2026-05-04 12:53 44.16212 2.24300 33971 ft 498 kts 57°
2026-05-04 12:54 44.20110 2.32208 33951 ft 498 kts 57°
2026-05-04 12:54 44.24018 2.40170 33972 ft 497 kts 57°
2026-05-04 12:55 44.27914 2.48137 33979 ft 497 kts 57°
2026-05-04 12:55 44.31799 2.56100 33982 ft 496 kts 57°
2026-05-04 12:56 44.35697 2.64098 33981 ft 496 kts 57°
2026-05-04 12:56 44.39566 2.72065 33978 ft 497 kts 57°
2026-05-04 12:57 44.43450 2.80067 33994 ft 497 kts 57°
2026-05-04 12:57 44.47320 2.88055 33990 ft 495 kts 57°
2026-05-04 12:58 44.51168 2.96058 33991 ft 495 kts 57°
2026-05-04 12:58 44.55012 3.04073 33991 ft 495 kts 57°
2026-05-04 12:59 44.58855 3.12111 33999 ft 495 kts 57°
2026-05-04 12:59 44.62605 3.20201 34007 ft 494 kts 60°
2026-05-04 13:00 44.65986 3.28581 34018 ft 493 kts 64°
2026-05-04 13:00 44.68669 3.35627 34018 ft 493 kts 64°
2026-05-04 13:01 44.71949 3.44086 34018 ft 493 kts 63°
2026-05-04 13:01 44.75310 3.52509 34028 ft 493 kts 62°
2026-05-04 13:02 44.78681 3.60893 34025 ft 492 kts 62°
2026-05-04 13:02 44.82041 3.69320 34019 ft 492 kts 63°
2026-05-04 13:03 44.85360 3.77760 34018 ft 492 kts 63°
2026-05-04 13:03 44.88667 3.86211 34004 ft 492 kts 63°
2026-05-04 13:04 44.91989 3.94671 34011 ft 493 kts 63°
2026-05-04 13:04 44.95311 4.03135 34034 ft 492 kts 63°
2026-05-04 13:05 44.98619 4.11603 34036 ft 492 kts 63°
2026-05-04 13:05 45.01910 4.20082 34043 ft 492 kts 63°
2026-05-04 13:06 45.05186 4.28559 34036 ft 491 kts 63°
2026-05-04 13:06 45.08460 4.37029 34046 ft 490 kts 63°
2026-05-04 13:07 45.11728 4.45507 34055 ft 489 kts 64°
2026-05-04 13:07 45.14964 4.53960 34056 ft 488 kts 64°
2026-05-04 13:08 45.18183 4.62384 34044 ft 487 kts 64°
2026-05-04 13:08 45.21411 4.70814 34042 ft 487 kts 64°
2026-05-04 13:09 45.24637 4.79274 34052 ft 487 kts 64°
2026-05-04 13:09 45.27846 4.87743 34057 ft 486 kts 64°
2026-05-04 13:10 45.31032 4.96182 34067 ft 485 kts 64°
2026-05-04 13:10 45.34216 5.04626 34047 ft 484 kts 65°
2026-05-04 13:11 45.37409 5.13108 34058 ft 484 kts 65°
2026-05-04 13:11 45.40583 5.21567 34061 ft 484 kts 65°
2026-05-04 13:12 45.43741 5.30019 34060 ft 484 kts 65°
2026-05-04 13:12 45.46870 5.38450 34072 ft 484 kts 65°
2026-05-04 13:13 45.50811 5.46244 34041 ft 488 kts 46°
2026-05-04 13:13 45.55842 5.52733 34057 ft 488 kts 42°
2026-05-04 13:14 45.60900 5.59180 34058 ft 487 kts 43°
2026-05-04 13:14 45.65931 5.65642 34089 ft 487 kts 43°
2026-05-04 13:15 45.70961 5.72129 34062 ft 487 kts 43°
2026-05-04 13:15 45.76007 5.78610 34067 ft 487 kts 43°
2026-05-04 13:16 45.81052 5.85078 34080 ft 487 kts 43°
2026-05-04 13:16 45.86089 5.91557 34057 ft 487 kts 43°
2026-05-04 13:17 45.91119 5.98050 34094 ft 485 kts 43°
2026-05-04 13:17 45.96121 6.04540 34101 ft 485 kts 43°
2026-05-04 13:18 46.01120 6.11046 34110 ft 484 kts 43°
2026-05-04 13:18 46.06116 6.17555 34099 ft 484 kts 43°
2026-05-04 13:19 46.10643 6.24724 34086 ft 480 kts 57°
2026-05-04 13:19 46.14477 6.32614 34082 ft 480 kts 57°
2026-05-04 13:20 46.18337 6.40505 34057 ft 480 kts 56°
2026-05-04 13:20 46.22179 6.48384 34070 ft 480 kts 57°
2026-05-04 13:21 46.26002 6.56276 34030 ft 479 kts 57°
2026-05-04 13:21 46.27911 6.60236 33689 ft 479 kts 57°
2026-05-04 13:21 46.29812 6.64179 33267 ft 478 kts 57°
2026-05-04 13:21 46.31711 6.68120 32861 ft 477 kts 57°
2026-05-04 13:22 46.33603 6.72049 32474 ft 474 kts 57°
2026-05-04 13:22 46.35484 6.75955 32067 ft 470 kts 57°
2026-05-04 13:22 46.37345 6.79826 31681 ft 467 kts 57°
2026-05-04 13:22 46.39192 6.83674 31287 ft 463 kts 57°
2026-05-04 13:23 46.41126 6.87396 30898 ft 461 kts 51°
2026-05-04 13:23 46.43239 6.90873 30528 ft 459 kts 51°
2026-05-04 13:23 46.45353 6.94333 30160 ft 456 kts 51°
2026-05-04 13:23 46.47451 6.97755 29748 ft 453 kts 50°
2026-05-04 13:24 46.49542 7.01161 29323 ft 450 kts 50°
2026-05-04 13:24 46.51615 7.04552 28910 ft 448 kts 51°
2026-05-04 13:24 46.53672 7.07927 28503 ft 445 kts 51°
2026-05-04 13:25 46.57729 7.14599 27694 ft 440 kts 51°
2026-05-04 13:25 46.59770 7.17966 27299 ft 437 kts 50°
2026-05-04 13:25 46.61776 7.21285 26917 ft 436 kts 50°
2026-05-04 13:25 46.63769 7.24587 26523 ft 433 kts 51°
2026-05-04 13:26 46.65751 7.27878 26136 ft 431 kts 50°
2026-05-04 13:26 46.67701 7.31117 25735 ft 429 kts 50°
2026-05-04 13:26 46.69691 7.34422 25259 ft 426 kts 50°
2026-05-04 13:26 46.71635 7.37648 24822 ft 423 kts 50°
2026-05-04 13:27 46.73575 7.40868 24359 ft 420 kts 50°
2026-05-04 13:27 46.75490 7.44053 23915 ft 417 kts 50°
2026-05-04 13:27 46.77398 7.47233 23462 ft 414 kts 50°
2026-05-04 13:27 46.79276 7.50396 22929 ft 412 kts 51°
2026-05-04 13:28 46.81104 7.53624 22403 ft 410 kts 52°
2026-05-04 13:28 46.82873 7.56864 21903 ft 407 kts 53°
2026-05-04 13:28 46.84612 7.60114 21412 ft 405 kts 53°
2026-05-04 13:28 46.86384 7.63289 20923 ft 404 kts 46°
2026-05-04 13:29 46.88602 7.65793 20350 ft 404 kts 28°
2026-05-04 13:29 46.91143 7.67542 19796 ft 404 kts 23°
2026-05-04 13:29 46.93710 7.69220 19311 ft 403 kts 23°
2026-05-04 13:29 46.96267 7.70879 18835 ft 401 kts 23°
2026-05-04 13:30 46.98804 7.72528 18347 ft 399 kts 24°
2026-05-04 13:30 47.01343 7.74180 17827 ft 397 kts 24°
2026-05-04 13:30 47.03851 7.75821 17296 ft 395 kts 24°
2026-05-04 13:30 47.06365 7.77474 16773 ft 393 kts 24°
2026-05-04 13:31 47.08852 7.79117 16264 ft 392 kts 24°
2026-05-04 13:31 47.11330 7.80758 15760 ft 390 kts 24°
2026-05-04 13:31 47.13800 7.82394 15275 ft 388 kts 24°
2026-05-04 13:31 47.16254 7.84020 14781 ft 386 kts 24°
2026-05-04 13:32 47.18698 7.85640 14311 ft 383 kts 24°
2026-05-04 13:32 47.21120 7.87249 13830 ft 381 kts 24°
2026-05-04 13:32 47.23533 7.88853 13307 ft 379 kts 24°
2026-05-04 13:32 47.25923 7.90442 12777 ft 376 kts 24°
2026-05-04 13:33 47.28299 7.92021 12170 ft 376 kts 24°
2026-05-04 13:33 47.30693 7.93613 11407 ft 379 kts 25°
2026-05-04 13:33 47.33091 7.95209 11037 ft 372 kts 25°
2026-05-04 13:33 47.35435 7.96772 10904 ft 357 kts 25°
2026-05-04 13:34 47.37657 7.98255 10782 ft 343 kts 25°
2026-05-04 13:34 47.39786 7.99677 10651 ft 330 kts 25°
2026-05-04 13:34 47.41849 8.01054 10533 ft 319 kts 25°
2026-05-04 13:34 47.43805 8.02361 10408 ft 298 kts 25°
2026-05-04 13:35 47.45397 8.03424 10242 ft 284 kts 25°
2026-05-04 13:35 47.48500 8.05809 9324 ft 272 kts 41°
2026-05-04 13:35 47.49839 8.07748 8718 ft 269 kts 48°
2026-05-04 13:36 47.51121 8.09772 8378 ft 269 kts 49°
2026-05-04 13:36 47.52387 8.11793 8056 ft 267 kts 49°
2026-05-04 13:36 47.53648 8.13811 7693 ft 267 kts 49°
2026-05-04 13:36 47.54893 8.15822 7369 ft 264 kts 51°
2026-05-04 13:37 47.55970 8.18017 7029 ft 262 kts 58°
2026-05-04 13:37 47.56964 8.20264 6680 ft 260 kts 58°
2026-05-04 13:37 47.57780 8.22599 6347 ft 257 kts 70°
2026-05-04 13:37 47.58423 8.25096 5991 ft 256 kts 63°
2026-05-04 13:38 47.59598 8.27015 5717 ft 251 kts 31°
2026-05-04 13:38 47.61212 8.27737 5607 ft 240 kts 360°
2026-05-04 13:38 47.62828 8.27359 5473 ft 231 kts 348°
2026-05-04 13:38 47.64377 8.26940 5406 ft 220 kts
2026-05-04 13:39 47.65733 8.27543 5454 ft 196 kts 38°
2026-05-04 13:39 47.66451 8.29048 5413 ft 176 kts 79°
2026-05-04 13:39 47.66287 8.30785 5429 ft 170 kts 123°
2026-05-04 13:39 47.65472 8.31991 5422 ft 170 kts 151°
2026-05-04 13:40 47.64313 8.32301 5468 ft 171 kts 175°
2026-05-04 13:40 47.63247 8.32905 5340 ft 168 kts 134°
2026-05-04 13:40 47.62438 8.34184 5141 ft 170 kts 137°
2026-05-04 13:40 47.61559 8.35337 4943 ft 168 kts 137°
2026-05-04 13:41 47.60694 8.36500 4720 ft 167 kts 135°
2026-05-04 13:41 47.59845 8.37658 4497 ft 167 kts 135°
2026-05-04 13:41 47.58971 8.38856 4277 ft 170 kts 136°
2026-05-04 13:42 47.57232 8.41243 3813 ft 172 kts 137°
2026-05-04 13:42 47.56353 8.42450 3582 ft 172 kts 137°
2026-05-04 13:42 47.55478 8.43650 3372 ft 172 kts 137°
2026-05-04 13:42 47.54598 8.44857 3155 ft 172 kts 137°
2026-05-04 13:43 47.53720 8.46062 2925 ft 172 kts 137°
2026-05-04 13:43 47.52848 8.47257 2703 ft 168 kts 137°
2026-05-04 13:43 47.52011 8.48403 2486 ft 157 kts 137°
2026-05-04 13:43 47.51220 8.49486 2272 ft 153 kts 137°
2026-05-04 13:44 47.50449 8.50541 2063 ft 153 kts 136°
2026-05-04 13:44 47.49669 8.51606 1859 ft 152 kts 136°
2026-05-04 13:44 47.48895 8.52661 1653 ft 151 kts 135°
2026-05-04 13:44 47.48130 8.53717 1449 ft 150 kts 136°
2026-05-04 13:45 47.47416 8.54694 1393 ft 123 kts 136°
2026-05-04 13:45 47.46887 8.55414 1399 ft 91 kts 137°
2026-05-04 13:45 47.46540 8.55865 1402 ft 45 kts 148°
2026-05-04 13:45 47.46284 8.55986 1406 ft 27 kts 168°
2026-05-04 13:46 47.46100 8.55989 1407 ft 26 kts 184°
2026-05-04 13:46 47.45916 8.55942 1407 ft 28 kts 199°
2026-05-04 13:46 47.45733 8.55870 1410 ft 28 kts 186°
2026-05-04 13:46 47.45552 8.55843 1408 ft 22 kts 186°
2026-05-04 13:47 47.45449 8.55807 1407 ft 8 kts 186°
2026-05-04 13:47 47.45426 8.55803 1407 ft 0 kts 186°